sat.trackr.live / text

‹ back to catalog

BB3

NORAD 57760 · 2023-133D

PAYLOAD ACTIVE UNKNOWN

§ Identity

Operator
Country
US
Launch date
2023-09-02
Launch site
AFWTR
Launch vehicle
Mass (kg)
RCS (m²)

External: N2YO · Heavens-Above · Gunter

§ Orbital elements

Epoch: 2026-05-24T23:00:06.485760Z

Period
99.22 min
Inclination
80.9991°
Eccentricity
0.0137323
Mean motion
14.51344251 rev/d
Perigee alt
623.8 km
Apogee alt
818.8 km
Semi-major
7,099.4 km
B*
1.7646e-4
RAAN
15.0374°
Arg perigee
15.8433°
Mean anomaly
344.6989°
Rev number
13,868

§ Raw data

BB31 57760U 23133D   26144.95840840  .00000810  00000+0  17646-3 0  99972 57760  80.9991  15.0374 0137323  15.8433 344.6989 14.51344251138685

JSON: /api/v1/satellites/57760 · /tle

For live sub-satellite position, see the globe view (requires WebGL).

§ Visibility from observer

Set your observer location to see the next 7 days of passes ≥ 10°. The values pass through the URL so the page stays shareable.

No JS? Fill the form by hand. The geolocation button needs JavaScript.